sat.trackr.live / text

‹ back to catalog

2024-203A

NORAD 61869 · 2024-203A

PAYLOAD ACTIVE UNKNOWN

§ Identity

Operator
Country
PRC
Launch date
2024-11-09
Launch site
JSC
Launch vehicle
Mass (kg)
RCS (m²)

External: N2YO · Heavens-Above · Gunter

§ Orbital elements

Epoch: 2026-05-25T04:30:17.322336Z

Period
94.16 min
Inclination
97.4205°
Eccentricity
0.0012734
Mean motion
15.29338262 rev/d
Perigee alt
469.1 km
Apogee alt
486.5 km
Semi-major
6,855.9 km
B*
4.5771e-4
RAAN
215.5282°
Arg perigee
56.0479°
Mean anomaly
304.1970°
Rev number
8,544

§ Raw data

2024-203A1 61869U 24203A   26145.18770049  .00012988  00000+0  45771-3 0  99992 61869  97.4205 215.5282 0012734  56.0479 304.1970 15.29338262 85448

JSON: /api/v1/satellites/61869 · /tle

For live sub-satellite position, see the globe view (requires WebGL).

§ Visibility from observer

Set your observer location to see the next 7 days of passes ≥ 10°. The values pass through the URL so the page stays shareable.

No JS? Fill the form by hand. The geolocation button needs JavaScript.